Notices

What's New in latest Release from April 7th, 2021:

- Updated Glossary, including Speed of Maximum Gust, and Total Hourly Precipitation

- Updated national and regional climate services offices contacts and prices information

- Addition of station inventory lists for 1981-2010, 1971-2000, and 1961-1990 Normals.

If you haven't already, please take our survey and provide feedback about our website: https://eccc.sondage-survey.ca/f/LanguageSelection.aspx?s=442ca660-fcf1-47c0-95a9-59707d6fd709

Hourly Data Report for April 07, 2017

KUGAARUK CLIMATE
NUNAVUT

68°32'15.060" N
89°47'47.020" W
15.80 m
2303094
71407
NBB

Download Data

Hourly Data (April 2017)
Hourly Data Report for April 7, 2017
TIME
LST
Temp Definition
°C
Dew Point Definition
°C
Rel Hum Definition
%
Precip. Amount Definition
mm

Wind Dir Definition
10's deg

Wind Spd Definition
km/h
Visibility Definition
km
Stn Press Definition
kPa
Hmdx Definition


Wind Chill Definition


Weather Definition


00:00 -21.5 -24.3 79 0.0 6 23   101.32   -33 LegendNANA
01:00 -20.8 -23.8 77 0.0 8 16   101.26   -30 LegendNANA
02:00 -20.2 -23.2 77 0.2 10 16   101.22   -30 LegendNANA
03:00 -20.1 -23.0 78 0.0 8 20   101.15   -31 LegendNANA
04:00 -19.5 -22.6 76 0.2 10 18   101.11   -29 LegendNANA
05:00 -19.3 -22.3 77 0.2 9 23   101.04   -30 LegendNANA
06:00 -19.0 -22.0 77 0.0 9 20   100.99   -29 LegendNANA
07:00 -18.5 -21.4 78 0.2 8 17   100.92   -28 LegendNANA
08:00 -17.0 -20.2 77 0.0 8 21   100.85   -27 LegendNANA
09:00 -16.8 -20.1 75 0.2 9 26   100.78   -28 LegendNANA
10:00 -16.9 -20.2 75 0.0 9 25   100.74   -28 LegendNANA
11:00 -16.7 -20.0 76 0.0 8 25   100.69   -27 LegendNANA
12:00 -16.7 -20.1 75 0.2 6 23   100.67   -27 LegendNANA
13:00 -16.7 -19.8 77 0.0 7 22   100.63   -27 LegendNANA
14:00 -17.0 -20.2 76 0.2 8 21   100.60   -27 LegendNANA
15:00 -17.2 -20.3 77 0.0 6 19   100.58   -27 LegendNANA
16:00 -17.7 -20.7 78 0.2 3 21   100.56   -28 LegendNANA
17:00 -18.3 -21.2 78 0.0 3 20   100.56   -28 LegendNANA
18:00 -19.0 -21.8 79 0.2 3 19   100.51   -29 LegendNANA
19:00 -20.0 -22.7 79 0.0 1 18   100.51   -30 LegendNANA
20:00 -21.4 -24.2 78 0.0 4 12   100.47   -30 LegendNANA
21:00 -21.0 -23.4 81 0.0 9 8   100.47   -27 LegendNANA
22:00 -21.3 -23.9 79 0.0 4 5   100.46   -26 LegendNANA
23:00 -21.0 -23.7 79 0.0 33 5   100.44   -25 LegendNANA

Notes on Data Quality.

Legend

  • E = Estimated
  • M = Missing
  • NA = Not Available*
  • [empty] = Indicates an unobserved value
Date modified: